This is the latest recevied weather packets stored in our database for station/object N8QF. If no packets are shown the sender has not sent any weather packets the latest 10 day(s).
| Time | Temp. | Humidity | Pressure | Rain* | Wind** | Luminosity | Snow |
|---|---|---|---|---|---|---|---|
| 1777675390 | 11.11° C | 56% | 1014.4 hPa | 1.78 mm | - | - | - |
| 1777675090 | 11.11° C | 58% | 1014.5 hPa | 1.78 mm | - | - | - |
| 1777674790 | 11.11° C | 59% | 1014.5 hPa | 1.78 mm | - | - | - |
| 1777674490 | 11.11° C | 60% | 1014.6 hPa | 1.78 mm | - | - | - |
| 1777674189 | 11.11° C | 58% | 1014.5 hPa | 1.78 mm | - | - | - |
| 1777673888 | 11.11° C | 59% | 1014.5 hPa | 1.78 mm | - | - | - |
| 1777673588 | 11.11° C | 58% | 1014.4 hPa | 1.78 mm | - | - | - |
| 1777673274 | 11.11° C | 58% | 1014.3 hPa | 1.78 mm | - | - | - |
| 1777672974 | 10.56° C | 57% | 1014.4 hPa | 1.78 mm | - | - | - |
| 1777672674 | 11.11° C | 56% | 1014.4 hPa | 1.78 mm | - | - | - |
| 1777672373 | 11.67° C | 56% | 1014.4 hPa | 1.78 mm | - | - | - |
| 1777672073 | 11.67° C | 54% | 1014.5 hPa | 1.78 mm | - | - | - |
| 1777671772 | 11.67° C | 56% | 1014.4 hPa | 1.78 mm | - | - | - |
| 1777671472 | 11.67° C | 57% | 1014.4 hPa | 1.78 mm | - | - | - |
| 1777671172 | 11.11° C | 61% | 1014.4 hPa | 1.78 mm | - | - | - |
| 1777670872 | 10.56° C | 64% | 1014.5 hPa | 1.78 mm | - | - | - |
| 1777670571 | 11.11° C | 62% | 1014.5 hPa | 1.78 mm | - | - | - |
| 1777670271 | 11.11° C | 59% | 1014.4 hPa | 1.78 mm | - | - | - |
| 1777669971 | 11.67° C | 56% | 1014.4 hPa | 1.78 mm | - | - | - |
| 1777669669 | 11.67° C | 57% | 1014.4 hPa | 1.78 mm | - | - | - |
| 1777669369 | 11.67° C | 55% | 1014.4 hPa | 1.78 mm | - | - | - |
| 1777669069 | 12.22° C | 59% | 1014.5 hPa | 1.78 mm | - | - | - |
| 1777668769 | 11.67° C | 55% | 1014.5 hPa | 1.78 mm | - | - | - |
| 1777668467 | 12.22° C | 57% | 1014.4 hPa | 1.78 mm | - | - | - |
| 1777668167 | 11.67° C | 62% | 1014.5 hPa | 1.78 mm | - | - | - |
* Rain since midnight (hover to see other rain measurements)
** Current wind speed in m/s (hover to see current wind gust speed)